Regional Weather Roundup
Issued by NWS

Home | Current Version | Previous Version | Graphics & Text | Print | Product List | Glossary On
Versions: 1 2 3 4 5 6 7 8 9 10 11 12 13 14 15 16 17 18 19 20 21 22 23 24 25 26 27 28 29 30 31 32 33 34 35 36 37 38 39 40 41 42 43 44 45 46 47 48 49 50
000
ASUS43 KIND 241709
RWRIN

WEATHER ROUNDUP FOR INDIANA
NATIONAL WEATHER SERVICE INDIANAPOLIS IN
1200 PM EST MON NOV 24 2014

NOTE: "FAIR" INDICATES FEW OR NO CLOUDS BELOW 12,000 FEET WITH NO
SIGNIFICANT WEATHER AND/OR OBSTRUCTIONS TO VISIBILITY.

* - STATION DOES NOT REPORT WEATHER SUCH AS PRECIPITATION OR FOG.

+ - STATION NOT QUALITY CONTROLLED BY THE NATIONAL WEATHER SERVICE.
    USE DATA WITH CAUTION...ESPECIALLY DEWPOINT AND RELATIVE
    HUMIDITY OBSERVATIONS.

INZ001>003-010>013-019-020-241800-
NORTHWEST INDIANA

CITY           SKY/WX    TMP DP  RH WIND       PRES   REMARKS
GARY /AIRPORT/ LGT SNOW  36  32  87 SW29G40   29.30R
KNOX *+        CLOUDY    35  33  93 SW36G47   29.33R WCI  20
LA PORTE +     LGT SNOW  37  37 100 SW31G37   29.30R
MICHIGAN CITY+ DRIZZLE   34  34 100 SW25G36   29.29R WCI  21
MONTICELLO +   DRIZZLE   36  33  88 W30G44    29.42R
RENSSELAER +   LGT SNOW  34  34 100 SW30G44   29.40R WCI  20
VALPARAISO     SNOW      32  32 100 SW25G37   29.34R VSB 1/2 WCI  19

$$

LMZ046-743>745-241800-
SOUTHERN LAKE MICHIGAN

STATION/POSITION TIME  TEMP WIND        PRES
                       AIR  DIR/SP/G
                 (UTC) (F)  (DEG/KT/KT) (MB)
MICHIGAN CITY    1700   36  210/ 33/ 39   N/A

$$

INZ004-005-014>016-021>024-241800-
NORTH CENTRAL INDIANA

CITY           SKY/WX    TMP DP  RH WIND       PRES   REMARKS
ELKHART        DRIZZLE   39  37  93 SW26G38   29.25R
GOSHEN         LGT RAIN  46  36  68 SW32G47   29.27R
LOGANSPORT +   DRIZZLE   34  34 100 SW29G48   29.43R WCI  20
PERU/GRISSOM   LGT RAIN  37  37 100 W32G43    29.42R
ROCHESTER +    PTSUNNY   37  34  87 W32G43    29.37R
SOUTH BEND     LGT RAIN  38  38 100 SW25G46   29.27R FOG
WARSAW +       CLOUDY    37  34  87 SW29G45   29.31R

$$

INZ006>009-017-018-025>027-241800-
NORTHEAST INDIANA

CITY           SKY/WX    TMP DP  RH WIND       PRES   REMARKS
ANGOLA *+      CLOUDY    43  34  70 SW28G45   29.23R
AUBURN +       DRIZZLE   43  37  81 SW25G36   29.28R
FORT WAYNE     LGT RAIN  40  37  89 SW39G54   29.33R FOG
HUNTINGTON +   CLOUDY    38  35  87 W25G43    29.37R

$$

INZ028-029-035-036-043>045-051>053-241800-
WEST CENTRAL INDIANA

CITY           SKY/WX    TMP DP  RH WIND       PRES   REMARKS
CRAWFORDSVL +  CLOUDY    36  32  87 SW23G31   29.52
GREENCASTLE +  CLOUDY    36  32  87 W10G26    29.56R
LAFAYETTE      CLOUDY    36  32  85 W21G35    29.47R
TERRE HAUTE    CLOUDY    39  33  79 W21G29    29.59R

$$

INZ030>032-037>040-046>048-054>057-064-065-241800-
CENTRAL INDIANA

CITY           SKY/WX    TMP DP  RH WIND       PRES   REMARKS
ANDERSON       CLOUDY    39  32  75 SW17G40   29.48R
CP ATTERBURY + CLOUDY    41  36  81 SW25G32   29.56R
FRANKFORT +    CLOUDY    37  37 100 SW37G45   29.49R
GREENWOOD *+   CLOUDY    39  32  75 W20G36    29.54R
INDIANAPOLIS   CLOUDY    37  33  85 SW26G37   29.53R
-EAGLE CREEK   CLOUDY    38  32  79 W14G32    29.52R
KOKOMO *+      CLOUDY    37  30  75 W33G44    29.45R
MARION +       CLOUDY    37  33  85 W33G46    29.45R
MT COMFORT *+  CLOUDY    39  32  75 SW28G41   29.52R
SHELBYVILLE    CLOUDY    42  35  76 W24G35    29.53R
ZIONSVILLE +   CLOUDY    37  32  82 W32G39    29.51R

$$

INZ033-034-041-042-049-050-058-059-241800-
EAST CENTRAL INDIANA

CITY           SKY/WX    TMP DP  RH WIND       PRES   REMARKS
MUNCIE         CLOUDY    42  35  76 W28G45    29.44R

$$

INZ060-061-067>069-081>083-085>088-241800-
SOUTHWEST INDIANA

CITY           SKY/WX    TMP DP  RH WIND       PRES   REMARKS
EVANSVILLE     CLOUDY    45  34  65 SW18      29.70R
HUNTINGBURG *+ CLOUDY    43  34  70 W20G28    29.69R
WASHINGTON +   CLOUDY    41  38  87 SW14G25   29.64R

$$

INZ062-063-066-070>080-084-089>092-241800-
SOUTH CENTRAL AND SOUTHEAST INDIANA

CITY           SKY/WX    TMP DP  RH WIND       PRES   REMARKS
BLOOMINGTON    CLOUDY    39  35  86 W15G28    29.59R
NORTH VERNON + CLOUDY    43  37  81 SW25G32   29.60
SEYMOUR +      CLOUDY    45  36  70 W26G32    29.61

$$



USA.gov is the U.S. government's official web portal to all federal, state and local government web resources and services.